Flag for United Kingdom Weather past 2 weeks in Brighton, England, United Kingdom

Now
39 °F

Clear.


Feels Like: 34 °F
Forecast: 39 / 47 °F
Wind: 7 mph from Northwest

Location: London / Gatwick Airport

Current Time: Jan 27, 2015 at 1:23:39 AM

Latest Report: Jan 27, 2015 at 12:20 AM


Visibility: 10 mi

Pressure: 30.36 "Hg

Humidity: 81%

Dew point: 34 °F

Location of BrightonLocation

Historic Weather in Brighton — Graph

°F

Brighton temperature yesterday

Maximum temperature yesterday: 50 °F (at 9:50 AM)
Minimum temperature yesterday: 37 °F (at 8:50 PM)
Average temperature yesterday: 46 °F

Past Weeks' High & Low Weather Summary

 TemperatureHumidityPressure
High52 °F (Jan 12, 1:20 PM)100% (Jan 12, 12:50 PM)30.48 "Hg (Jan 12, 12:50 PM)
Low23 °F (Jan 20, 4:50 AM)61% (Jan 14, 2:20 PM)29.21 "Hg (Jan 15, 2:50 AM)
Average39 °F86%29.92 "Hg
* Reported Jan 11 11:20 PM — Jan 26 11:50 PM, Brighton, Weather by CustomWeather, © 2014

Note: Actual official high and low records may vary slightly from our data, if they occured in-between our weather recording intervals... More about our weather records

Advertising

Brighton weather history for previous 24 hours

 ConditionsComfort  
Time TempWeatherWind HumidityBarometerVisibility
11:50 PM
Jan 26
39 °FClear.6 mph81%30.36 "Hg10 mi
11:20 PM39 °FClear.6 mph81%30.36 "Hg10 mi
10:50 PM39 °FClear.8 mph81%30.36 "Hg10 mi
10:20 PM41 °FClear.9 mph81%30.36 "Hg10 mi
9:50 PM41 °FClear.8 mph81%30.36 "Hg10 mi
9:20 PM39 °FClear.7 mph81%30.33 "Hg10 mi
8:50 PM37 °FClear.7 mph87%30.33 "Hg10 mi
8:20 PM41 °FClear.6 mph76%30.33 "Hg10 mi
7:50 PM41 °FClear.7 mph76%30.33 "Hg10 mi
7:20 PM43 °FClear.7 mph71%30.33 "Hg10 mi
6:50 PM43 °FClear.6 mph71%30.30 "Hg10 mi
6:20 PM43 °FClear.7 mph71%30.30 "Hg10 mi
5:50 PM45 °FPassing clouds.7 mph66%30.30 "HgN/A
5:20 PM45 °FPassing clouds.7 mph66%30.27 "HgN/A
4:50 PM45 °FPassing clouds.8 mph66%30.27 "HgN/A
4:20 PM45 °FScattered clouds.10 mph66%30.27 "HgN/A
3:50 PM46 °FScattered clouds.14 mph66%30.24 "HgN/A
3:20 PM46 °FScattered clouds.14 mph66%30.24 "HgN/A
2:50 PM48 °FScattered clouds.13 mph71%30.21 "HgN/A
2:20 PM48 °FScattered clouds.13 mph71%30.21 "HgN/A
1:50 PM48 °FPartly sunny.12 mph71%30.21 "HgN/A
1:20 PM48 °FPartly sunny.15 mph76%30.21 "HgN/A
12:50 PM50 °FBroken clouds.13 mph76%30.21 "HgN/A
12:20 PM50 °FPartly sunny.10 mph82%30.18 "HgN/A
11:50 AM50 °FBroken clouds.12 mph88%30.18 "HgN/A
11:20 AM50 °FPartly sunny.10 mph94%30.18 "HgN/A
10:50 AM50 °FDrizzle. Partly sunny.9 mph94%30.18 "Hg2 mi
10:20 AM50 °FBroken clouds.9 mph88%30.18 "Hg4 mi
9:50 AM50 °FPartly sunny.10 mph88%30.18 "HgN/A
9:20 AM48 °FPartly sunny.13 mph94%30.18 "HgN/A
8:50 AM48 °FPartly sunny.10 mph94%30.18 "HgN/A
8:20 AM48 °FBroken clouds.12 mph94%30.18 "HgN/A
7:50 AM48 °FLight rain. Partly sunny.7 mph94%30.18 "HgN/A
7:20 AM48 °FPartly cloudy.8 mph94%30.15 "HgN/A
6:50 AM48 °FPassing clouds.10 mph94%30.18 "HgN/A
6:20 AM48 °FLight rain. Passing clouds.8 mph94%30.18 "HgN/A
5:50 AM48 °FPassing clouds.8 mph94%30.18 "HgN/A
5:20 AM48 °FPassing clouds.6 mph87%30.18 "HgN/A
4:50 AM48 °FPassing clouds.7 mph94%30.21 "HgN/A
4:20 AM48 °FPassing clouds.9 mph94%30.21 "HgN/A
3:20 AM46 °FPassing clouds.6 mph93%30.21 "HgN/A
2:50 AM46 °FPassing clouds.7 mph93%30.24 "HgN/A
2:20 AM46 °FPassing clouds.5 mph93%30.24 "HgN/A
1:50 AM46 °FPassing clouds.5 mph93%30.24 "HgN/A
1:20 AM46 °FPassing clouds.6 mph93%30.27 "HgN/A
Weather by CustomWeather, © 2014

See weather overviewHow to use our weather pages